Weather History for Kansas City, MO

Change the Weather History Date:

Wednesday, January 16, 2013

  Actual Average Record
Temperature  
Mean Temperature 32 °F -  
Max Temperature 46 °F 37 °F 66 °F (2012)
Min Temperature 19 °F 21 °F 1 °F (2007)
Degree Days  
Heating Degree Days 32    
Moisture  
Dew Point 19 °F    
Average Humidity 58    
Maximum Humidity 81    
Minimum Humidity 41    
Precipitation  
Precipitation 0.00 in - - ()
Sea Level Pressure  
Sea Level Pressure 30.11 in    
Wind  
Wind Speed 5 mph (SW)    
Max Wind Speed 13 mph    
Max Gust Speed -    
Visibility 10 miles    
Events      
Averages and records for this station are not official NWS values.
T = Trace of Precipitation, MM = Missing Value Source: NWS Daily Summary

Daily Weather History Graph

Daily Weather History Graph

Search for Another Location

Airport:

Trip Planner

Search our weather history database for the weather conditions in past years. The results will help you decide how hot, cold, wet, or windy it might be!

Date:

Astronomy

Jan. 16, 2013 Rise Set
Actual Time 7:35 AM CST 5:21 PM CST
Civil Twilight 7:06 AM CST 5:50 PM CST
Nautical Twilight 6:33 AM CST 6:23 PM CST
Astronomical Twilight 6:01 AM CST 6:55 PM CST
Moon 10:15 AM CST (1/16) 11:10 PM CST (1/16)
Length of Visible Light 10h 44m
Length of Day
9h 45m
Waxing Crescent, 28% of the Moon is Illuminated
Jan 16
Waxing Crescent
Jan 18
First Quarter
Jan 26
Full
Feb 3
Last Quarter
Feb 10
New

Hourly Weather History & Observations

Time (CST) Temp. Windchill Dew Point Humidity Pressure Visibility Wind Dir Wind Speed Gust Speed Precip Events Conditions
12:54 AM 23.0 °F 18.4 °F 12.0 °F 63% 30.19 in 10.0 mi SSW 3.5 mph - N/A   Clear
1:54 AM 21.9 °F 15.7 °F 10.9 °F 63% 30.18 in 10.0 mi SW 4.6 mph - N/A   Clear
2:54 AM 21.9 °F 15.7 °F 10.9 °F 63% 30.16 in 10.0 mi SSW 4.6 mph - N/A   Clear
3:54 AM 19.0 °F 10.0 °F 10.0 °F 68% 30.15 in 10.0 mi SSW 6.9 mph - N/A   Clear
4:54 AM 19.0 °F 11.1 °F 10.9 °F 71% 30.12 in 10.0 mi SSW 5.8 mph - N/A   Clear
5:54 AM 21.9 °F 14.5 °F 12.0 °F 66% 30.11 in 10.0 mi SW 5.8 mph - N/A   Clear
6:54 AM 23.0 °F 18.4 °F 12.0 °F 63% 30.09 in 10.0 mi SW 3.5 mph - N/A   Clear
7:54 AM 25.0 °F 17.1 °F 12.9 °F 60% 30.09 in 10.0 mi SW 6.9 mph - N/A   Clear
8:54 AM 28.0 °F 20.0 °F 14.0 °F 56% 30.10 in 10.0 mi SW 8.1 mph - N/A   Clear
9:54 AM 33.1 °F 26.1 °F 16.0 °F 50% 30.09 in 10.0 mi WSW 8.1 mph - N/A   Partly Cloudy
10:54 AM 37.9 °F 31.5 °F 16.0 °F 41% 30.07 in 10.0 mi SW 9.2 mph - N/A   Clear
11:54 AM 39.0 °F 31.4 °F 17.1 °F 41% 30.06 in 10.0 mi SW 12.7 mph - N/A   Overcast
12:54 PM 42.1 °F 36.1 °F 19.9 °F 41% 30.04 in 10.0 mi SW 10.4 mph - N/A   Scattered Clouds
1:54 PM 42.8 °F 38.0 °F 21.2 °F 42% 30.03 in 10.0 mi SW 8.1 mph - N/A   Overcast
2:54 PM 46.0 °F 40.2 °F 24.1 °F 42% 30.04 in 10.0 mi SW 12.7 mph - N/A   Scattered Clouds
3:54 PM 46.0 °F 41.9 °F 25.0 °F 44% 30.05 in 10.0 mi WSW 8.1 mph - N/A   Clear
4:54 PM 45.0 °F 41.2 °F 25.0 °F 46% 30.06 in 10.0 mi SW 6.9 mph - N/A   Clear
5:54 PM 43.0 °F 40.3 °F 26.1 °F 51% 30.08 in 10.0 mi SSW 4.6 mph - N/A   Clear
6:54 PM 42.1 °F 39.2 °F 27.0 °F 55% 30.10 in 10.0 mi SW 4.6 mph - N/A   Clear
7:54 PM 39.0 °F - 26.1 °F 60% 30.12 in 10.0 mi Calm Calm - N/A   Clear
8:54 PM 33.1 °F - 26.1 °F 75% 30.13 in 10.0 mi Calm Calm - N/A   Clear
9:54 PM 36.0 °F - 27.0 °F 70% 30.14 in 10.0 mi Calm Calm - N/A   Clear
10:54 PM 30.0 °F - 24.1 °F 79% 30.17 in 10.0 mi Calm Calm - N/A   Clear
11:54 PM 28.0 °F - 23.0 °F 81% 30.21 in 10.0 mi Calm Calm - N/A   Clear